ONEWEB-0098, 45442

Orbit data source: Space-Track

ONEWEB-0098, 45442 is a payload satellite owned by One Web (UK) in LEO that was launched on Sat, 21 Mar 2020 UTC via a SOYUZ-2-1B launch vehicle from the Tyuratam Missile And Space Complex (TTMTR). Payload-class satellites include a variety of spacecraft equipped with specific instruments for various scientific and technological missions. These include communications satellites like Starlink; space stations such as the ISS; scientific satellites like the Hubble; Earth observation satellites from companies like Planet Labs, Umbra, and HawkEye 360; GPS; miniature CubeSats for education and research; and military/defense satellites.

Loading next visibility...
Identifier
45442, 2020-020U
Orbit
LEO
Country
Flag of UKUK
Related business
Manufacturer
One Web
Mission
Operational Commercial Communications
Bus & Motor
ARROW, Unknown motor
Mass
148 kg wet, ~140 kg dry
Launch date (UTC)
2020-03-21 (5 years ago)
Launch vehicle
SOYUZ-2-1B
Launch site
Tyuratam Missile And Space Complex (TTMTR)
Object type
Payload
Rocket body
Debris
Shape & HBR
Trap Box + 2 Pan, 2.5 m
Radar Cross Section
2.957 m², Large (>1 m²)

Expand to show TLE details & history
Last TLE update: 8 hours ago

TLE from 8 hours ago
0 ONEWEB-0098
1 45442U 20020U   25260.89183441 -.00000447  00000-0 -12972-2 0  9996
2 45442  87.8781  75.3042 0001656  92.2868 267.8449 13.11415166266951
Epoch: 2025-09-17T21:24Z
TLE epoch observation values (Epoch: 2025-09-17T21:24:14.493Z)
Latitude
-0.00005°
Longitude
117.18254°
Altitude
1,220.626 km
Speed
7.244 km/s
True Right ascension
05h 01m 13s
True Declination
0° 00' 00"
Sunlit
Object was in daylight at epoch
Visualization orbit readout
Latitude
Unknown
Longitude
Unknown
Altitude
Unknown
Speed
Unknown
Apparent Right ascension
Unknown
Apparent Declination
Unknown
Sunlit
N/A
Visualization observer readout
Local Sidereal Time
22:02:44
Azimuth
Unknown
Elevation
Unknown
Doppler factor
Unknown
Orbital elements
Apogee altitude
1,216.065 km
Perigee altitude
1,213.551 km
Semi-major axis
7,592.945 km
Eccentricity
0.00017
Inclination
87.8781°
RAAN
75.3042°
Arg. of periapsis
92.2868°
True anomaly
267.82594°
Mean anomaly
267.8449°
Eccentric anomaly
267.83542°
Mean motion
3.28041 °/min
Orbital period
109.74 mins
BSTAR
-0.0012972
Loading maneuver chart data...
Computing Atmospheric mass density...
Loading historical data...
Loading historical data...
Loading historical data...
Loading historical data...
Loading historical data...
Loading historical data...
Loading historical data...

Documentation

Showing up to 5 results
|